Time,TemperatureF,DewpointF,PressureIn,WindDirection,WindDirectionDegrees,WindSpeedMPH,WindSpeedGustMPH,Humidity,HourlyPrecipIn,Conditions,Clouds,dailyrainin,SoftwareType,DateUTC
2013-10-16 00:02:00,48.4,40.8,-100.00,West,264,6.0,9.0,75,0.00,,,0.00,meteohub,2013-10-16 05:02:00,
2013-10-16 00:07:00,48.2,40.6,-100.00,West,267,3.0,9.0,75,0.00,,,0.00,meteohub,2013-10-16 05:07:00,
2013-10-16 00:13:00,48.0,40.5,-100.00,WSW,240,4.0,7.0,75,0.00,,,0.00,meteohub,2013-10-16 05:13:00,
2013-10-16 00:18:00,47.8,40.3,-100.00,West,259,1.0,7.0,75,0.00,,,0.00,meteohub,2013-10-16 05:18:00,
2013-10-16 00:23:00,47.8,40.6,-100.00,West,276,5.0,6.0,76,0.00,,,0.00,meteohub,2013-10-16 05:23:00,
2013-10-16 00:28:00,47.8,40.6,-100.00,West,261,1.0,9.0,76,0.00,,,0.00,meteohub,2013-10-16 05:28:00,
2013-10-16 00:33:00,47.7,40.5,-100.00,WNW,286,2.0,9.0,76,0.00,,,0.00,meteohub,2013-10-16 05:33:00,
2013-10-16 00:38:00,47.7,40.5,-100.00,West,271,1.0,10.0,76,0.00,,,0.00,meteohub,2013-10-16 05:38:00,
2013-10-16 00:43:00,47.7,40.5,-100.00,West,269,4.0,10.0,76,0.00,,,0.00,meteohub,2013-10-16 05:43:00,
2013-10-16 00:48:00,47.5,40.3,-100.00,WSW,254,0.0,10.0,76,0.00,,,0.00,meteohub,2013-10-16 05:48:00,
2013-10-16 00:53:00,47.5,40.3,-100.00,WSW,246,1.0,9.0,76,0.00,,,0.00,meteohub,2013-10-16 05:53:00,
2013-10-16 00:58:00,47.3,40.5,-100.00,West,263,0.0,11.0,77,0.00,,,0.00,meteohub,2013-10-16 05:58:00,
2013-10-16 01:03:00,47.1,40.3,-100.00,WSW,244,1.0,11.0,77,0.00,,,0.00,meteohub,2013-10-16 06:03:00,
2013-10-16 01:08:00,47.1,40.3,-100.00,West,264,3.0,11.0,77,0.00,,,0.00,meteohub,2013-10-16 06:08:00,
2013-10-16 01:13:00,47.1,40.3,-100.00,West,278,5.0,10.0,77,0.00,,,0.00,meteohub,2013-10-16 06:13:00,
2013-10-16 01:18:00,47.1,40.3,-100.00,WSW,257,0.0,10.0,77,0.00,,,0.00,meteohub,2013-10-16 06:18:00,
2013-10-16 01:23:00,47.5,40.6,-100.00,WSW,254,3.0,12.0,77,0.00,,,0.00,meteohub,2013-10-16 06:23:00,
2013-10-16 01:28:00,47.5,40.6,-100.00,West,263,2.0,12.0,77,0.00,,,0.00,meteohub,2013-10-16 06:28:00,
2013-10-16 01:33:00,47.7,40.8,-100.00,West,264,1.0,12.0,77,0.00,,,0.00,meteohub,2013-10-16 06:33:00,
2013-10-16 01:38:00,47.7,40.8,-100.00,West,271,3.0,12.0,77,0.00,,,0.00,meteohub,2013-10-16 06:38:00,
2013-10-16 01:43:00,47.7,40.8,-100.00,West,277,0.0,10.0,77,0.00,,,0.00,meteohub,2013-10-16 06:43:00,
2013-10-16 01:48:00,47.8,41.0,-100.00,West,267,5.0,10.0,77,0.00,,,0.00,meteohub,2013-10-16 06:48:00,
2013-10-16 01:53:00,48.0,40.8,-100.00,West,267,4.0,14.0,76,0.00,,,0.00,meteohub,2013-10-16 06:53:00,
2013-10-16 01:59:00,48.0,40.8,-100.00,SW,229,0.0,14.0,76,0.00,,,0.00,meteohub,2013-10-16 06:59:00,
2013-10-16 02:04:00,48.0,40.8,-100.00,West,272,0.0,14.0,76,0.00,,,0.00,meteohub,2013-10-16 07:04:00,
2013-10-16 02:09:00,48.0,40.8,-100.00,West,264,5.0,12.0,76,0.00,,,0.00,meteohub,2013-10-16 07:09:00,
2013-10-16 02:14:00,47.8,41.0,-100.00,West,265,6.0,12.0,77,0.00,,,0.00,meteohub,2013-10-16 07:14:00,
2013-10-16 02:19:00,47.8,40.6,-100.00,West,259,2.0,10.0,76,0.00,,,0.00,meteohub,2013-10-16 07:19:00,
2013-10-16 02:24:00,47.8,41.0,-100.00,West,265,2.0,10.0,77,0.00,,,0.00,meteohub,2013-10-16 07:24:00,
2013-10-16 02:29:00,47.8,41.0,-100.00,WSW,252,2.0,10.0,77,0.00,,,0.00,meteohub,2013-10-16 07:29:00,
2013-10-16 02:34:00,47.8,41.0,-100.00,WSW,245,0.0,10.0,77,0.00,,,0.00,meteohub,2013-10-16 07:34:00,
2013-10-16 02:39:00,48.0,41.2,-100.00,West,261,0.0,10.0,77,0.00,,,0.00,meteohub,2013-10-16 07:39:00,
2013-10-16 02:44:00,48.0,41.2,-100.00,West,267,6.0,7.0,77,0.00,,,0.00,meteohub,2013-10-16 07:44:00,
2013-10-16 02:49:00,48.0,40.8,-100.00,WNW,284,4.0,8.0,76,0.00,,,0.00,meteohub,2013-10-16 07:49:00,
2013-10-16 02:54:00,48.4,41.2,-100.00,West,267,4.0,12.0,76,0.00,,,0.00,meteohub,2013-10-16 07:54:00,
2013-10-16 02:59:00,48.4,41.2,-100.00,WSW,241,3.0,12.0,76,0.00,,,0.00,meteohub,2013-10-16 07:59:00,
2013-10-16 03:04:00,48.6,41.4,-100.00,West,265,6.0,17.0,76,0.00,,,0.00,meteohub,2013-10-16 08:04:00,
2013-10-16 03:09:00,48.7,41.2,-100.00,West,280,7.0,17.0,75,0.00,,,0.00,meteohub,2013-10-16 08:09:00,
2013-10-16 03:14:00,48.9,41.0,-100.00,WSW,245,6.0,17.0,74,0.00,,,0.00,meteohub,2013-10-16 08:14:00,
2013-10-16 03:19:00,49.3,41.0,-100.00,WNW,294,7.0,20.0,73,0.00,,,0.00,meteohub,2013-10-16 08:19:00,
2013-10-16 03:24:00,49.3,41.0,-100.00,West,261,3.0,20.0,73,0.00,,,0.00,meteohub,2013-10-16 08:24:00,
2013-10-16 03:29:00,49.3,41.0,-100.00,WNW,282,9.0,20.0,73,0.00,,,0.00,meteohub,2013-10-16 08:29:00,
2013-10-16 03:34:00,49.3,41.0,-100.00,WNW,288,6.0,14.0,73,0.00,,,0.00,meteohub,2013-10-16 08:34:00,
2013-10-16 03:39:00,49.3,40.6,-100.00,WSW,257,5.0,12.0,72,0.00,,,0.00,meteohub,2013-10-16 08:39:00,
2013-10-16 03:44:00,49.5,40.8,-100.00,WSW,241,4.0,14.0,72,0.00,,,0.00,meteohub,2013-10-16 08:44:00,
2013-10-16 03:49:00,49.5,40.8,-100.00,West,269,4.0,15.0,72,0.00,,,0.00,meteohub,2013-10-16 08:49:00,
2013-10-16 03:54:00,49.5,40.8,-100.00,WSW,257,5.0,15.0,72,0.00,,,0.00,meteohub,2013-10-16 08:54:00,
2013-10-16 03:59:00,49.5,40.8,-100.00,WSW,255,1.0,12.0,72,0.00,,,0.00,meteohub,2013-10-16 08:59:00,
2013-10-16 04:04:00,49.5,40.8,-100.00,West,261,3.0,15.0,72,0.00,,,0.00,meteohub,2013-10-16 09:04:00,
2013-10-16 04:09:00,49.5,40.8,-100.00,WSW,245,4.0,17.0,72,0.00,,,0.00,meteohub,2013-10-16 09:09:00,
2013-10-16 04:14:00,49.5,40.8,-100.00,WNW,282,4.0,17.0,72,0.00,,,0.00,meteohub,2013-10-16 09:14:00,
2013-10-16 04:19:00,49.5,40.8,-100.00,WNW,293,10.0,17.0,72,0.00,,,0.00,meteohub,2013-10-16 09:19:00,
2013-10-16 04:25:00,49.5,40.5,-100.00,West,268,10.0,13.0,71,0.00,,,0.00,meteohub,2013-10-16 09:25:00,
2013-10-16 04:30:00,49.5,40.5,-100.00,West,266,6.0,19.0,71,0.00,,,0.00,meteohub,2013-10-16 09:30:00,
2013-10-16 04:35:00,49.5,40.5,-100.00,West,276,5.0,19.0,71,0.00,,,0.00,meteohub,2013-10-16 09:35:00,
2013-10-16 04:40:00,49.5,40.5,-100.00,WNW,282,3.0,19.0,71,0.00,,,0.00,meteohub,2013-10-16 09:40:00,
2013-10-16 04:45:00,49.3,40.3,-100.00,WNW,291,11.0,17.0,71,0.00,,,0.00,meteohub,2013-10-16 09:45:00,
2013-10-16 04:50:00,49.3,39.9,-100.00,SW,236,10.0,16.0,70,0.00,,,0.00,meteohub,2013-10-16 09:50:00,
2013-10-16 04:55:00,49.3,39.9,-100.00,West,272,10.0,17.0,70,0.00,,,0.00,meteohub,2013-10-16 09:55:00,
2013-10-16 05:00:00,49.3,40.3,-100.00,WNW,286,10.0,17.0,71,0.00,,,0.00,meteohub,2013-10-16 10:00:00,
2013-10-16 05:05:00,49.3,40.3,-100.00,West,273,11.0,16.0,71,0.00,,,0.00,meteohub,2013-10-16 10:05:00,
2013-10-16 05:10:00,49.3,39.9,-100.00,NW,304,5.0,16.0,70,0.00,,,0.00,meteohub,2013-10-16 10:10:00,
2013-10-16 05:15:00,49.3,40.3,-100.00,West,268,9.0,16.0,71,0.00,,,0.00,meteohub,2013-10-16 10:15:00,
2013-10-16 05:20:00,49.3,39.9,-100.00,WNW,294,10.0,16.0,70,0.00,,,0.00,meteohub,2013-10-16 10:20:00,
2013-10-16 05:25:00,49.3,40.3,-100.00,West,263,8.0,14.0,71,0.00,,,0.00,meteohub,2013-10-16 10:25:00,
2013-10-16 05:30:00,49.3,40.3,-100.00,WSW,247,12.0,14.0,71,0.00,,,0.00,meteohub,2013-10-16 10:30:00,
2013-10-16 05:35:00,49.3,40.3,-100.00,WNW,288,10.0,12.0,71,0.00,,,0.00,meteohub,2013-10-16 10:35:00,
2013-10-16 05:40:00,49.3,40.3,-100.00,WNW,282,4.0,14.0,71,0.00,,,0.00,meteohub,2013-10-16 10:40:00,
2013-10-16 05:45:00,49.3,40.3,-100.00,WSW,243,2.0,14.0,71,0.00,,,0.00,meteohub,2013-10-16 10:45:00,
2013-10-16 05:50:00,49.3,40.3,-100.00,WNW,294,10.0,13.0,71,0.00,,,0.00,meteohub,2013-10-16 10:50:00,
2013-10-16 05:55:00,49.3,40.3,-100.00,WSW,254,10.0,13.0,71,0.00,,,0.00,meteohub,2013-10-16 10:55:00,
2013-10-16 06:00:00,49.3,40.3,-100.00,West,273,9.0,12.0,71,0.00,,,0.00,meteohub,2013-10-16 11:00:00,
2013-10-16 06:05:00,49.3,40.3,-100.00,WNW,283,10.0,13.0,71,0.00,,,0.00,meteohub,2013-10-16 11:05:00,
2013-10-16 06:10:00,49.3,40.3,-100.00,West,260,4.0,16.0,71,0.00,,,0.00,meteohub,2013-10-16 11:10:00,
2013-10-16 06:15:00,49.3,40.3,-100.00,West,259,1.0,16.0,71,0.00,,,0.00,meteohub,2013-10-16 11:15:00,
2013-10-16 06:20:00,49.3,40.3,-100.00,WSW,252,5.0,16.0,71,0.00,,,0.00,meteohub,2013-10-16 11:20:00,
2013-10-16 06:26:00,49.3,40.6,-100.00,West,276,1.0,11.0,72,0.00,,,0.00,meteohub,2013-10-16 11:26:00,
2013-10-16 06:31:00,49.3,40.6,-100.00,West,262,6.0,11.0,72,0.00,,,0.00,meteohub,2013-10-16 11:31:00,
2013-10-16 06:36:00,49.1,40.1,-100.00,WNW,298,10.0,12.0,71,0.00,,,0.00,meteohub,2013-10-16 11:36:00,
2013-10-16 06:41:00,49.3,40.3,-100.00,WNW,292,8.0,13.0,71,0.00,,,0.00,meteohub,2013-10-16 11:41:00,
2013-10-16 06:46:00,49.3,40.3,-100.00,WNW,291,6.0,13.0,71,0.00,,,0.00,meteohub,2013-10-16 11:46:00,
2013-10-16 06:51:00,49.3,40.3,-100.00,SW,232,4.0,13.0,71,0.00,,,0.00,meteohub,2013-10-16 11:51:00,
2013-10-16 06:56:00,49.1,40.1,-100.00,WNW,298,11.0,17.0,71,0.00,,,0.00,meteohub,2013-10-16 11:56:00,
2013-10-16 07:01:00,49.1,40.1,-100.00,West,270,2.0,17.0,71,0.00,,,0.00,meteohub,2013-10-16 12:01:00,
2013-10-16 07:06:00,48.9,39.9,-100.00,WSW,248,6.0,17.0,71,0.00,,,0.00,meteohub,2013-10-16 12:06:00,
2013-10-16 07:11:00,48.9,39.9,-100.00,WSW,256,5.0,13.0,71,0.00,,,0.00,meteohub,2013-10-16 12:11:00,
2013-10-16 07:16:00,48.9,39.9,-100.00,WNW,294,6.0,12.0,71,0.00,,,0.00,meteohub,2013-10-16 12:16:00,
2013-10-16 07:21:00,48.9,39.9,-100.00,SW,235,6.0,11.0,71,0.00,,,0.00,meteohub,2013-10-16 12:21:00,
2013-10-16 07:26:00,48.9,40.3,-100.00,WNW,288,10.0,13.0,72,0.00,,,0.00,meteohub,2013-10-16 12:26:00,
2013-10-16 07:31:00,48.9,40.3,-100.00,WSW,255,14.0,17.0,72,0.00,,,0.00,meteohub,2013-10-16 12:31:00,
2013-10-16 07:36:00,48.9,40.3,-100.00,West,277,4.0,17.0,72,0.00,,,0.00,meteohub,2013-10-16 12:36:00,
2013-10-16 07:41:00,48.9,40.3,-100.00,West,271,9.0,16.0,72,0.00,,,0.00,meteohub,2013-10-16 12:41:00,
2013-10-16 07:46:00,48.9,40.6,-100.00,West,272,6.0,15.0,73,0.00,,,0.00,meteohub,2013-10-16 12:46:00,
2013-10-16 07:51:00,48.9,40.6,-100.00,WNW,286,15.0,16.0,73,0.00,,,0.00,meteohub,2013-10-16 12:51:00,
2013-10-16 07:56:00,48.9,40.3,-100.00,West,276,8.0,20.0,72,0.00,,,0.00,meteohub,2013-10-16 12:56:00,
2013-10-16 08:01:00,48.9,40.6,-100.00,WSW,254,2.0,20.0,73,0.00,,,0.00,meteohub,2013-10-16 13:01:00,
2013-10-16 08:06:00,48.7,40.5,-100.00,WNW,290,5.0,20.0,73,0.00,,,0.00,meteohub,2013-10-16 13:06:00,
2013-10-16 08:11:00,48.7,40.5,-100.00,West,275,5.0,19.0,73,0.00,,,0.00,meteohub,2013-10-16 13:11:00,
2013-10-16 08:16:00,48.7,40.5,-100.00,SW,234,4.0,19.0,73,0.00,,,0.00,meteohub,2013-10-16 13:16:00,
2013-10-16 08:21:00,48.7,40.5,-100.00,SSW,199,4.0,15.0,73,0.00,,,0.00,meteohub,2013-10-16 13:21:00,
2013-10-16 08:26:00,48.7,40.1,-100.00,WNW,286,9.0,17.0,72,0.00,,,0.00,meteohub,2013-10-16 13:26:00,
2013-10-16 08:31:00,48.7,40.1,-100.00,West,269,5.0,19.0,72,0.00,,,0.00,meteohub,2013-10-16 13:31:00,
2013-10-16 08:36:00,48.7,40.5,-100.00,West,275,5.0,19.0,73,0.00,,,0.00,meteohub,2013-10-16 13:36:00,
2013-10-16 08:41:00,48.7,40.5,-100.00,West,277,3.0,19.0,73,0.00,,,0.00,meteohub,2013-10-16 13:41:00,
2013-10-16 08:46:00,48.7,40.5,-100.00,West,265,6.0,15.0,73,0.00,,,0.00,meteohub,2013-10-16 13:46:00,
2013-10-16 08:51:00,48.7,40.5,-100.00,WSW,250,8.0,15.0,73,0.00,,,0.00,meteohub,2013-10-16 13:51:00,
2013-10-16 08:56:00,48.7,40.5,-100.00,West,261,11.0,15.0,73,0.00,,,0.00,meteohub,2013-10-16 13:56:00,
2013-10-16 09:01:00,48.7,40.5,-100.00,SW,236,3.0,17.0,73,0.00,,,0.00,meteohub,2013-10-16 14:01:00,
2013-10-16 09:07:00,48.9,40.6,-100.00,West,277,6.0,17.0,73,0.00,,,0.00,meteohub,2013-10-16 14:07:00,
2013-10-16 09:12:00,48.9,40.6,-100.00,West,264,5.0,17.0,73,0.00,,,0.00,meteohub,2013-10-16 14:12:00,
2013-10-16 09:17:00,49.3,40.6,-100.00,West,280,5.0,17.0,72,0.00,,,0.00,meteohub,2013-10-16 14:17:00,
2013-10-16 09:22:00,49.3,40.6,-100.00,West,261,7.0,15.0,72,0.00,,,0.00,meteohub,2013-10-16 14:22:00,
2013-10-16 09:27:00,49.5,40.8,-100.00,West,268,0.0,15.0,72,0.00,,,0.00,meteohub,2013-10-16 14:27:00,
2013-10-16 09:32:00,49.5,40.8,-100.00,West,261,9.0,15.0,72,0.00,,,0.00,meteohub,2013-10-16 14:32:00,
2013-10-16 09:37:00,49.5,40.8,-100.00,WNW,296,7.0,15.0,72,0.00,,,0.00,meteohub,2013-10-16 14:37:00,
2013-10-16 09:42:00,49.5,40.8,-100.00,West,275,4.0,15.0,72,0.00,,,0.00,meteohub,2013-10-16 14:42:00,
2013-10-16 09:47:00,49.6,41.0,-100.00,West,279,11.0,15.0,72,0.00,,,0.00,meteohub,2013-10-16 14:47:00,
2013-10-16 09:52:00,49.6,41.0,-100.00,West,271,0.0,15.0,72,0.00,,,0.00,meteohub,2013-10-16 14:52:00,
2013-10-16 09:57:00,49.8,40.8,-100.00,West,268,5.0,15.0,71,0.00,,,0.00,meteohub,2013-10-16 14:57:00,
2013-10-16 10:02:00,50.0,40.6,-100.00,WNW,287,5.0,14.0,70,0.00,,,0.00,meteohub,2013-10-16 15:02:00,
2013-10-16 10:07:00,50.0,41.0,-100.00,West,273,7.0,12.0,71,0.00,,,0.00,meteohub,2013-10-16 15:07:00,
2013-10-16 10:12:00,50.0,41.0,-100.00,West,274,5.0,15.0,71,0.00,,,0.00,meteohub,2013-10-16 15:12:00,
2013-10-16 10:17:00,50.0,40.6,-100.00,West,269,4.0,15.0,70,0.00,,,0.00,meteohub,2013-10-16 15:17:00,
2013-10-16 10:22:00,50.0,40.6,-100.00,WNW,284,5.0,13.0,70,0.00,,,0.00,meteohub,2013-10-16 15:22:00,
2013-10-16 10:27:00,50.0,40.6,-100.00,West,275,3.0,18.0,70,0.00,,,0.00,meteohub,2013-10-16 15:27:00,
2013-10-16 10:32:00,50.0,40.6,-100.00,West,264,12.0,18.0,70,0.00,,,0.00,meteohub,2013-10-16 15:32:00,
2013-10-16 10:37:00,50.2,41.2,-100.00,WNW,295,6.0,18.0,71,0.00,,,0.00,meteohub,2013-10-16 15:37:00,
2013-10-16 10:42:00,50.4,41.0,-100.00,West,265,4.0,18.0,70,0.00,,,0.00,meteohub,2013-10-16 15:42:00,
2013-10-16 10:47:00,50.4,41.0,-100.00,West,276,0.0,18.0,70,0.00,,,0.00,meteohub,2013-10-16 15:47:00,
2013-10-16 10:52:00,50.5,41.2,-100.00,SW,222,8.0,18.0,70,0.00,,,0.00,meteohub,2013-10-16 15:52:00,
2013-10-16 10:57:00,50.5,41.2,-100.00,WNW,298,18.0,18.0,70,0.00,,,0.00,meteohub,2013-10-16 15:57:00,
2013-10-16 11:02:00,50.5,41.2,-100.00,West,266,4.0,18.0,70,0.00,,,0.00,meteohub,2013-10-16 16:02:00,
2013-10-16 11:07:00,50.7,41.4,-100.00,West,269,6.0,18.0,70,0.00,,,0.00,meteohub,2013-10-16 16:07:00,
2013-10-16 11:13:00,51.1,41.2,-100.00,WSW,258,4.0,18.0,69,0.00,,,0.00,meteohub,2013-10-16 16:13:00,
2013-10-16 11:18:00,51.3,41.0,-100.00,WSW,258,3.0,13.0,68,0.00,,,0.00,meteohub,2013-10-16 16:18:00,
2013-10-16 11:23:00,51.4,41.2,-100.00,West,263,7.0,15.0,68,0.00,,,0.00,meteohub,2013-10-16 16:23:00,
2013-10-16 11:28:00,51.4,41.2,-100.00,West,270,9.0,15.0,68,0.00,,,0.00,meteohub,2013-10-16 16:28:00,
2013-10-16 11:33:00,51.6,41.4,-100.00,WSW,251,7.0,15.0,68,0.00,,,0.00,meteohub,2013-10-16 16:33:00,
2013-10-16 11:38:00,52.0,41.7,-100.00,SSW,207,9.0,15.0,68,0.00,,,0.00,meteohub,2013-10-16 16:38:00,
2013-10-16 11:43:00,51.6,41.4,-100.00,WSW,257,10.0,14.0,68,0.00,,,0.00,meteohub,2013-10-16 16:43:00,
2013-10-16 11:48:00,52.0,41.7,-100.00,West,265,0.0,15.0,68,0.00,,,0.00,meteohub,2013-10-16 16:48:00,
2013-10-16 11:53:00,52.2,41.9,-100.00,West,261,14.0,15.0,68,0.00,,,0.00,meteohub,2013-10-16 16:53:00,
2013-10-16 11:58:00,52.2,41.5,-100.00,WSW,250,0.0,15.0,67,0.00,,,0.00,meteohub,2013-10-16 16:58:00,
2013-10-16 12:03:00,52.3,41.7,-100.00,WSW,255,11.0,15.0,67,0.00,,,0.00,meteohub,2013-10-16 17:03:00,
2013-10-16 12:08:00,52.3,41.7,-100.00,SW,217,9.0,16.0,67,0.00,,,0.00,meteohub,2013-10-16 17:08:00,
2013-10-16 12:13:00,52.5,41.9,-100.00,WSW,257,12.0,16.0,67,0.00,,,0.00,meteohub,2013-10-16 17:13:00,
2013-10-16 12:18:00,52.7,42.1,-100.00,West,259,0.0,13.0,67,0.00,,,0.00,meteohub,2013-10-16 17:18:00,
2013-10-16 12:23:00,53.2,42.3,-100.00,SW,233,0.0,14.0,66,0.00,,,0.00,meteohub,2013-10-16 17:23:00,
2013-10-16 12:28:00,53.6,42.1,-100.00,WSW,237,0.0,14.0,65,0.00,,,0.00,meteohub,2013-10-16 17:28:00,
2013-10-16 12:33:00,53.6,42.1,-100.00,WSW,238,0.0,14.0,65,0.00,,,0.00,meteohub,2013-10-16 17:33:00,
2013-10-16 12:38:00,53.8,42.6,-100.00,West,273,1.0,14.0,66,0.00,,,0.00,meteohub,2013-10-16 17:38:00,
2013-10-16 12:43:00,54.0,42.4,-100.00,WSW,246,11.0,14.0,65,0.00,,,0.00,meteohub,2013-10-16 17:43:00,
2013-10-16 12:48:00,54.1,42.3,-100.00,WSW,253,0.0,13.0,64,0.00,,,0.00,meteohub,2013-10-16 17:48:00,
2013-10-16 12:53:00,54.7,42.8,-100.00,WSW,250,7.0,16.0,64,0.00,,,0.00,meteohub,2013-10-16 17:53:00,
2013-10-16 12:58:00,54.7,42.3,-100.00,SW,236,6.0,16.0,63,0.00,,,0.00,meteohub,2013-10-16 17:58:00,
2013-10-16 13:03:00,54.7,42.3,-100.00,WSW,245,9.0,16.0,63,0.00,,,0.00,meteohub,2013-10-16 18:03:00,
2013-10-16 13:08:00,54.9,42.4,-100.00,WNW,295,13.0,13.0,63,0.00,,,0.00,meteohub,2013-10-16 18:08:00,
2013-10-16 13:13:00,54.9,42.4,-100.00,West,275,0.0,14.0,63,0.00,,,0.00,meteohub,2013-10-16 18:13:00,
2013-10-16 13:18:00,55.0,42.6,-100.00,SW,215,0.0,14.0,63,0.00,,,0.00,meteohub,2013-10-16 18:18:00,
2013-10-16 13:23:00,54.9,43.0,-100.00,West,265,1.0,14.0,64,0.00,,,0.00,meteohub,2013-10-16 18:23:00,
2013-10-16 13:27:00,55.0,42.6,-100.00,West,277,4.0,12.0,63,0.00,,,0.00,meteohub,2013-10-16 18:27:00,
2013-10-16 13:32:00,55.0,42.6,-100.00,WSW,254,4.0,14.0,63,0.00,,,0.00,meteohub,2013-10-16 18:32:00,
2013-10-16 13:37:00,55.0,43.2,-100.00,West,265,0.0,15.0,64,0.00,,,0.00,meteohub,2013-10-16 18:37:00,
2013-10-16 13:42:00,55.0,42.6,-100.00,West,264,8.0,15.0,63,0.00,,,0.00,meteohub,2013-10-16 18:42:00,
2013-10-16 13:47:00,55.4,43.0,-100.00,WSW,255,0.0,15.0,63,0.00,,,0.00,meteohub,2013-10-16 18:47:00,
2013-10-16 13:52:00,55.8,43.0,-100.00,West,276,0.0,14.0,62,0.00,,,0.00,meteohub,2013-10-16 18:52:00,
2013-10-16 13:57:00,55.6,42.8,-100.00,West,262,6.0,14.0,62,0.00,,,0.00,meteohub,2013-10-16 18:57:00,
2013-10-16 14:03:00,55.0,42.6,-100.00,West,269,5.0,15.0,63,0.00,,,0.00,meteohub,2013-10-16 19:03:00,
2013-10-16 14:08:00,55.0,43.2,-100.00,SW,220,3.0,15.0,64,0.00,,,0.00,meteohub,2013-10-16 19:08:00,
2013-10-16 14:13:00,54.9,43.0,-100.00,West,279,4.0,15.0,64,0.00,,,0.00,meteohub,2013-10-16 19:13:00,
2013-10-16 14:18:00,54.9,43.0,-100.00,West,281,7.0,15.0,64,0.00,,,0.00,meteohub,2013-10-16 19:18:00,
2013-10-16 14:23:00,55.0,42.6,-100.00,West,281,3.0,15.0,63,0.00,,,0.00,meteohub,2013-10-16 19:23:00,
2013-10-16 14:28:00,55.0,42.6,-100.00,West,269,2.0,14.0,63,0.00,,,0.00,meteohub,2013-10-16 19:28:00,
2013-10-16 14:33:00,55.6,43.2,-100.00,WSW,243,0.0,12.0,63,0.00,,,0.00,meteohub,2013-10-16 19:33:00,
2013-10-16 14:38:00,55.8,43.0,-100.00,WSW,254,0.0,12.0,62,0.00,,,0.00,meteohub,2013-10-16 19:38:00,
2013-10-16 14:43:00,55.6,42.8,-100.00,West,271,4.0,11.0,62,0.00,,,0.00,meteohub,2013-10-16 19:43:00,
2013-10-16 14:48:00,55.2,42.8,-100.00,West,273,6.0,12.0,63,0.00,,,0.00,meteohub,2013-10-16 19:48:00,
2013-10-16 14:53:00,55.0,42.6,-100.00,West,276,5.0,12.0,63,0.00,,,0.00,meteohub,2013-10-16 19:53:00,
2013-10-16 14:58:00,55.0,42.6,-100.00,WSW,254,4.0,12.0,63,0.00,,,0.00,meteohub,2013-10-16 19:58:00,
2013-10-16 15:03:00,55.0,42.6,-100.00,West,273,6.0,14.0,63,0.00,,,0.00,meteohub,2013-10-16 20:03:00,
2013-10-16 15:08:00,54.9,42.4,-100.00,West,276,0.0,14.0,63,0.00,,,0.00,meteohub,2013-10-16 20:08:00,
2013-10-16 15:13:00,54.9,42.4,-100.00,WNW,288,2.0,14.0,63,0.00,,,0.00,meteohub,2013-10-16 20:13:00,
2013-10-16 15:18:00,54.9,43.0,-100.00,West,269,1.0,12.0,64,0.00,,,0.00,meteohub,2013-10-16 20:18:00,
2013-10-16 15:23:00,54.9,42.4,-100.00,WNW,284,6.0,13.0,63,0.00,,,0.00,meteohub,2013-10-16 20:23:00,
2013-10-16 15:28:00,55.0,42.6,-100.00,WNW,297,6.0,13.0,63,0.00,,,0.00,meteohub,2013-10-16 20:28:00,
2013-10-16 15:33:00,55.0,42.6,-100.00,WNW,286,4.0,13.0,63,0.00,,,0.00,meteohub,2013-10-16 20:33:00,
2013-10-16 15:38:00,55.2,43.3,-100.00,WNW,290,0.0,13.0,64,0.00,,,0.00,meteohub,2013-10-16 20:38:00,
2013-10-16 15:43:00,55.6,43.2,-100.00,WNW,285,3.0,13.0,63,0.00,,,0.00,meteohub,2013-10-16 20:43:00,
2013-10-16 15:49:00,56.1,43.3,-100.00,West,275,0.0,13.0,62,0.00,,,0.00,meteohub,2013-10-16 20:49:00,
2013-10-16 15:54:00,55.9,43.2,-100.00,WNW,283,0.0,11.0,62,0.00,,,0.00,meteohub,2013-10-16 20:54:00,
2013-10-16 15:59:00,55.8,43.0,-100.00,West,271,0.0,13.0,62,0.00,,,0.00,meteohub,2013-10-16 20:59:00,
2013-10-16 16:04:00,55.9,43.5,-100.00,West,277,0.0,13.0,63,0.00,,,0.00,meteohub,2013-10-16 21:04:00,
2013-10-16 16:09:00,56.7,43.3,-100.00,West,265,0.0,10.0,61,0.00,,,0.00,meteohub,2013-10-16 21:09:00,
2013-10-16 16:14:00,56.8,43.5,-100.00,West,268,1.0,9.0,61,0.00,,,0.00,meteohub,2013-10-16 21:14:00,
2013-10-16 16:19:00,56.8,43.2,-100.00,WNW,285,6.0,6.0,60,0.00,,,0.00,meteohub,2013-10-16 21:19:00,
2013-10-16 16:24:00,56.8,43.5,-100.00,West,259,0.0,11.0,61,0.00,,,0.00,meteohub,2013-10-16 21:24:00,
2013-10-16 16:29:00,56.5,42.8,-100.00,West,280,5.0,12.0,60,0.00,,,0.00,meteohub,2013-10-16 21:29:00,
2013-10-16 16:34:00,55.9,42.6,-100.00,WNW,283,0.0,12.0,61,0.00,,,0.00,meteohub,2013-10-16 21:34:00,
2013-10-16 16:39:00,55.9,42.6,-100.00,West,280,13.0,13.0,61,0.00,,,0.00,meteohub,2013-10-16 21:39:00,
2013-10-16 16:44:00,55.8,42.4,-100.00,SW,229,1.0,12.0,61,0.00,,,0.00,meteohub,2013-10-16 21:44:00,
2013-10-16 16:49:00,55.6,42.8,-100.00,WNW,294,4.0,15.0,62,0.00,,,0.00,meteohub,2013-10-16 21:49:00,
2013-10-16 16:54:00,55.0,42.3,-100.00,WSW,257,3.0,15.0,62,0.00,,,0.00,meteohub,2013-10-16 21:54:00,
2013-10-16 16:59:00,54.9,42.4,-100.00,WNW,286,3.0,12.0,63,0.00,,,0.00,meteohub,2013-10-16 21:59:00,
2013-10-16 17:04:00,54.7,42.8,-100.00,WSW,253,7.0,12.0,64,0.00,,,0.00,meteohub,2013-10-16 22:04:00,
2013-10-16 17:09:00,54.3,42.4,-100.00,West,279,6.0,12.0,64,0.00,,,0.00,meteohub,2013-10-16 22:09:00,
2013-10-16 17:14:00,54.1,42.3,-100.00,WNW,288,9.0,10.0,64,0.00,,,0.00,meteohub,2013-10-16 22:14:00,
2013-10-16 17:19:00,54.0,42.4,-100.00,WNW,299,6.0,11.0,65,0.00,,,0.00,meteohub,2013-10-16 22:19:00,
2013-10-16 17:24:00,54.0,42.4,-100.00,West,269,0.0,11.0,65,0.00,,,0.00,meteohub,2013-10-16 22:24:00,
2013-10-16 17:29:00,54.0,42.4,-100.00,West,277,0.0,12.0,65,0.00,,,0.00,meteohub,2013-10-16 22:29:00,
2013-10-16 17:34:00,53.8,42.3,-100.00,West,261,0.0,12.0,65,0.00,,,0.00,meteohub,2013-10-16 22:34:00,
2013-10-16 17:39:00,53.8,42.6,-100.00,West,279,0.0,12.0,66,0.00,,,0.00,meteohub,2013-10-16 22:39:00,
2013-10-16 17:44:00,53.6,42.4,-100.00,West,272,0.0,7.0,66,0.00,,,0.00,meteohub,2013-10-16 22:44:00,
2013-10-16 17:49:00,53.4,42.3,-100.00,West,275,0.0,7.0,66,0.00,,,0.00,meteohub,2013-10-16 22:49:00,
2013-10-16 17:54:00,53.4,42.3,-100.00,West,277,0.0,1.0,66,0.00,,,0.00,meteohub,2013-10-16 22:54:00,
2013-10-16 17:59:00,53.2,42.6,-100.00,West,272,0.0,1.0,67,0.00,,,0.00,meteohub,2013-10-16 22:59:00,
2013-10-16 18:04:00,53.1,42.4,-100.00,West,277,0.0,1.0,67,0.00,,,0.00,meteohub,2013-10-16 23:04:00,
2013-10-16 18:09:00,53.1,42.8,-100.00,West,281,0.0,10.0,68,0.00,,,0.00,meteohub,2013-10-16 23:09:00,
2013-10-16 18:14:00,52.9,42.6,-100.00,WNW,298,0.0,10.0,68,0.00,,,0.00,meteohub,2013-10-16 23:14:00,
2013-10-16 18:19:00,52.7,42.4,-100.00,WNW,300,0.0,10.0,68,0.00,,,0.00,meteohub,2013-10-16 23:19:00,
2013-10-16 18:24:00,52.5,42.3,-100.00,WNW,290,0.0,1.0,68,0.00,,,0.00,meteohub,2013-10-16 23:24:00,
2013-10-16 18:29:00,52.3,42.4,-100.00,WNW,294,0.0,1.0,69,0.00,,,0.00,meteohub,2013-10-16 23:29:00,
2013-10-16 18:34:00,52.3,42.4,-100.00,WNW,296,0.0,1.0,69,0.00,,,0.00,meteohub,2013-10-16 23:34:00,
2013-10-16 18:39:00,52.2,42.3,-100.00,West,273,0.0,1.0,69,0.00,,,0.00,meteohub,2013-10-16 23:39:00,
2013-10-16 18:44:00,52.2,42.3,-100.00,West,264,0.0,1.0,69,0.00,,,0.00,meteohub,2013-10-16 23:44:00,
2013-10-16 18:49:00,52.0,42.1,-100.00,WNW,288,1.0,1.0,69,0.00,,,0.00,meteohub,2013-10-16 23:49:00,
2013-10-16 18:54:00,52.0,42.4,-100.00,West,279,0.0,1.0,70,0.00,,,0.00,meteohub,2013-10-16 23:54:00,
2013-10-16 19:00:00,52.0,42.4,-100.00,WNW,291,0.0,1.0,70,0.00,,,0.00,meteohub,2013-10-17 00:00:00,
2013-10-16 19:05:00,51.8,42.3,-100.00,WNW,294,0.0,2.0,70,0.00,,,0.00,meteohub,2013-10-17 00:05:00,
2013-10-16 19:10:00,51.6,42.1,-100.00,NW,319,0.0,2.0,70,0.00,,,0.00,meteohub,2013-10-17 00:10:00,
2013-10-16 19:15:00,51.6,42.4,-100.00,NW,310,0.0,2.0,71,0.00,,,0.00,meteohub,2013-10-17 00:15:00,
2013-10-16 19:20:00,51.4,42.4,-100.00,WNW,298,0.0,2.0,71,0.00,,,0.00,meteohub,2013-10-17 00:20:00,
2013-10-16 19:25:00,51.4,42.4,-100.00,WNW,303,0.0,2.0,71,0.00,,,0.00,meteohub,2013-10-17 00:25:00,
2013-10-16 19:30:00,51.4,42.4,-100.00,NW,308,0.0,4.0,71,0.00,,,0.00,meteohub,2013-10-17 00:30:00,
2013-10-16 19:35:00,51.4,42.4,-100.00,WNW,286,0.0,4.0,71,0.00,,,0.00,meteohub,2013-10-17 00:35:00,
2013-10-16 19:40:00,51.4,42.4,-100.00,WNW,284,0.0,3.0,71,0.00,,,0.00,meteohub,2013-10-17 00:40:00,
2013-10-16 19:45:00,51.4,42.4,-100.00,WNW,286,0.0,3.0,71,0.00,,,0.00,meteohub,2013-10-17 00:45:00,
2013-10-16 19:50:00,51.3,42.3,-100.00,WNW,282,0.0,1.0,71,0.00,,,0.00,meteohub,2013-10-17 00:50:00,
2013-10-16 19:55:00,51.3,42.3,-100.00,West,279,0.0,1.0,71,0.00,,,0.00,meteohub,2013-10-17 00:55:00,
2013-10-16 20:00:00,51.3,42.3,-100.00,West,279,0.0,1.0,71,0.00,,,0.00,meteohub,2013-10-17 01:00:00,
2013-10-16 20:05:00,51.3,42.3,-100.00,West,279,0.0,1.0,71,0.00,,,0.00,meteohub,2013-10-17 01:05:00,
2013-10-16 20:10:00,51.1,42.1,-100.00,West,279,0.0,0.0,71,0.00,,,0.00,meteohub,2013-10-17 01:10:00,
2013-10-16 20:15:00,51.1,42.1,-100.00,WNW,286,0.0,2.0,71,0.00,,,0.00,meteohub,2013-10-17 01:15:00,
2013-10-16 20:20:00,51.1,42.4,-100.00,WNW,282,0.0,2.0,72,0.00,,,0.00,meteohub,2013-10-17 01:20:00,
2013-10-16 20:25:00,51.1,42.1,-100.00,West,281,0.0,2.0,71,0.00,,,0.00,meteohub,2013-10-17 01:25:00,
2013-10-16 20:30:00,51.1,42.4,-100.00,West,280,0.0,1.0,72,0.00,,,0.00,meteohub,2013-10-17 01:30:00,
2013-10-16 20:35:00,51.1,42.4,-100.00,West,279,0.0,1.0,72,0.00,,,0.00,meteohub,2013-10-17 01:35:00,
2013-10-16 20:40:00,51.1,42.4,-100.00,West,279,0.0,1.0,72,0.00,,,0.00,meteohub,2013-10-17 01:40:00,
2013-10-16 20:45:00,51.1,42.4,-100.00,West,278,0.0,1.0,72,0.00,,,0.00,meteohub,2013-10-17 01:45:00,
2013-10-16 20:50:00,50.9,42.3,-100.00,West,272,0.0,3.0,72,0.00,,,0.00,meteohub,2013-10-17 01:50:00,
2013-10-16 20:55:00,50.9,42.3,-100.00,West,271,0.0,3.0,72,0.00,,,0.00,meteohub,2013-10-17 01:55:00,
2013-10-16 21:00:00,50.9,42.3,-100.00,West,271,0.0,3.0,72,0.00,,,0.00,meteohub,2013-10-17 02:00:00,
2013-10-16 21:05:00,50.9,42.3,-100.00,WNW,283,0.0,4.0,72,0.00,,,0.00,meteohub,2013-10-17 02:05:00,
2013-10-16 21:10:00,50.9,42.3,-100.00,West,273,0.0,4.0,72,0.00,,,0.00,meteohub,2013-10-17 02:10:00,
2013-10-16 21:15:00,50.9,42.3,-100.00,WNW,286,4.0,4.0,72,0.00,,,0.00,meteohub,2013-10-17 02:15:00,
2013-10-16 21:20:00,50.7,42.1,-100.00,WSW,250,0.0,6.0,72,0.00,,,0.00,meteohub,2013-10-17 02:20:00,
2013-10-16 21:25:00,50.7,42.1,-100.00,West,267,0.0,6.0,72,0.00,,,0.00,meteohub,2013-10-17 02:25:00,
2013-10-16 21:30:00,50.7,42.1,-100.00,West,272,0.0,8.0,72,0.00,,,0.00,meteohub,2013-10-17 02:30:00,
2013-10-16 21:35:00,50.7,42.1,-100.00,West,260,0.0,8.0,72,0.00,,,0.00,meteohub,2013-10-17 02:35:00,
2013-10-16 21:41:00,50.7,42.1,-100.00,WSW,244,0.0,8.0,72,0.00,,,0.00,meteohub,2013-10-17 02:41:00,
2013-10-16 21:46:00,50.7,42.1,-100.00,WSW,250,0.0,3.0,72,0.00,,,0.00,meteohub,2013-10-17 02:46:00,
2013-10-16 21:51:00,50.7,42.1,-100.00,West,267,0.0,5.0,72,0.00,,,0.00,meteohub,2013-10-17 02:51:00,
2013-10-16 21:56:00,50.7,42.1,-100.00,West,261,0.0,5.0,72,0.00,,,0.00,meteohub,2013-10-17 02:56:00,
2013-10-16 22:01:00,50.7,42.1,-100.00,WSW,248,0.0,5.0,72,0.00,,,0.00,meteohub,2013-10-17 03:01:00,
2013-10-16 22:06:00,50.5,41.9,-100.00,WSW,248,0.0,4.0,72,0.00,,,0.00,meteohub,2013-10-17 03:06:00,
2013-10-16 22:11:00,50.5,41.9,-100.00,WSW,247,0.0,3.0,72,0.00,,,0.00,meteohub,2013-10-17 03:11:00,
2013-10-16 22:16:00,50.5,41.9,-100.00,WSW,246,0.0,0.0,72,0.00,,,0.00,meteohub,2013-10-17 03:16:00,
2013-10-16 22:21:00,50.5,42.3,-100.00,WSW,244,0.0,1.0,73,0.00,,,0.00,meteohub,2013-10-17 03:21:00,
2013-10-16 22:26:00,50.5,42.3,-100.00,WSW,241,0.0,1.0,73,0.00,,,0.00,meteohub,2013-10-17 03:26:00,
2013-10-16 22:31:00,50.5,42.3,-100.00,WSW,241,0.0,1.0,73,0.00,,,0.00,meteohub,2013-10-17 03:31:00,
2013-10-16 22:36:00,50.5,42.3,-100.00,WSW,241,0.0,0.0,73,0.00,,,0.00,meteohub,2013-10-17 03:36:00,
2013-10-16 22:41:00,50.5,42.6,-100.00,WSW,241,0.0,0.0,74,0.00,,,0.00,meteohub,2013-10-17 03:41:00,
2013-10-16 22:46:00,50.4,42.1,-100.00,WSW,256,0.0,0.0,73,0.00,,,0.00,meteohub,2013-10-17 03:46:00,
2013-10-16 22:51:00,50.4,42.1,-100.00,West,269,0.0,5.0,73,0.00,,,0.00,meteohub,2013-10-17 03:51:00,
2013-10-16 22:56:00,50.4,42.4,-100.00,West,270,0.0,5.0,74,0.00,,,0.00,meteohub,2013-10-17 03:56:00,
2013-10-16 23:01:00,50.4,42.4,-100.00,West,270,0.0,5.0,74,0.00,,,0.00,meteohub,2013-10-17 04:01:00,
2013-10-16 23:06:00,50.4,42.4,-100.00,West,270,0.0,0.0,74,0.00,,,0.00,meteohub,2013-10-17 04:06:00,
2013-10-16 23:11:00,50.2,42.3,-100.00,West,270,0.0,0.0,74,0.00,,,0.00,meteohub,2013-10-17 04:11:00,
2013-10-16 23:16:00,50.2,42.6,-100.00,West,269,0.0,0.0,75,0.00,,,0.00,meteohub,2013-10-17 04:16:00,
2013-10-16 23:21:00,49.8,42.3,-100.00,West,269,0.0,0.0,75,0.00,,,0.00,meteohub,2013-10-17 04:21:00,
2013-10-16 23:27:00,49.8,42.6,-100.00,West,270,0.0,0.0,76,0.00,,,0.00,meteohub,2013-10-17 04:27:00,
2013-10-16 23:31:00,49.6,42.8,-100.00,West,270,0.0,0.0,77,0.00,,,0.00,meteohub,2013-10-17 04:31:00,
2013-10-16 23:37:00,49.5,42.6,-100.00,West,270,0.0,0.0,77,0.00,,,0.00,meteohub,2013-10-17 04:37:00,
2013-10-16 23:42:00,49.5,42.8,-100.00,West,270,0.0,0.0,78,0.00,,,0.00,meteohub,2013-10-17 04:42:00,
2013-10-16 23:47:00,49.3,43.0,-100.00,West,270,0.0,0.0,79,0.00,,,0.00,meteohub,2013-10-17 04:47:00,
2013-10-16 23:52:00,49.3,43.3,-100.00,West,269,0.0,0.0,80,0.00,,,0.00,meteohub,2013-10-17 04:52:00,
2013-10-16 23:57:00,48.9,43.0,-100.00,West,265,0.0,0.0,80,0.00,,,0.00,meteohub,2013-10-17 04:57:00,